YO6IKB-10 Weather Reports


time (UTC)temp
F
wind
direction
speed
knots
gust
knots
rain 1hr
in
rain 24hr
in
rain mn
in
humidity
%
barometer
mb
20260507201107 66 225 0.0 0.9 0.00 0.00 0.00 56 1011.2
20260507200607 66 225 0.9 0.9 0.00 0.00 0.00 56 1011.2
20260507200107 66 225 0.0 0.0 0.00 0.00 0.00 56 1011.1
20260507195606 66 225 0.0 0.0 0.00 0.00 0.00 55 1011.1
20260507195106 66 225 0.0 0.9 0.00 0.00 0.00 55 1011.1
20260507194606 66 225 0.0 0.0 0.00 0.00 0.00 55 1011.2
20260507194106 66 225 0.0 0.9 0.00 0.00 0.00 56 1011.2
20260507193605 66 225 0.9 0.9 0.00 0.00 0.00 56 1011.2
20260507193105 66 225 0.0 2.6 0.00 0.00 0.00 56 1011.2
20260507192605 66 225 0.0 0.9 0.00 0.00 0.00 56 1011.2
20260507192104 67 225 0.0 0.9 0.00 0.00 0.00 56 1011.2
20260507191604 67 225 0.0 3.5 0.00 0.00 0.00 57 1011.0
20260507191104 67 225 0.0 0.9 0.00 0.00 0.00 56 1010.9
20260507190608 67 225 0.9 3.5 0.00 0.00 0.00 57 1011.1
20260507185603 67 225 0.0 0.0 0.00 0.00 0.00 56 1010.9
20260507185103 67 225 0.0 0.0 0.00 0.00 0.00 56 1010.9
20260507184602 68 225 0.0 1.7 0.00 0.00 0.00 55 1010.8
20260507184102 68 225 0.0 0.9 0.00 0.00 0.00 54 1010.8
20260507183602 68 225 0.0 0.0 0.00 0.00 0.00 54 1010.7
20260507183101 68 225 0.0 0.9 0.00 0.00 0.00 53 1010.6
20260507182601 68 225 0.0 3.5 0.00 0.00 0.00 52 1010.5
20260507182101 69 225 0.9 1.7 0.00 0.00 0.00 51 1010.3
20260507181601 69 225 0.0 2.6 0.00 0.00 0.00 51 1010.2
20260507181100 69 225 0.0 7.0 0.00 0.00 0.00 51 1010.1
20260507180600 69 225 6.1 6.1 0.00 0.00 0.00 51 1010.1
20260507180100 69 202 0.0 6.1 0.00 0.00 0.00 51 1010.0
20260507175559 69 180 1.7 6.1 0.00 0.00 0.00 51 1009.9
20260507175059 69 247 2.6 7.0 0.00 0.00 0.00 51 1009.9
20260507174559 69 247 5.2 9.6 0.00 0.00 0.00 50 1009.6
20260507174059 69 247 1.7 7.8 0.00 0.00 0.00 50 1009.6
20260507173558 70 292 3.5 7.8 0.00 0.00 0.00 50 1009.5
20260507173058 70 202 2.6 7.0 0.00 0.00 0.00 50 1009.6
20260507172558 70 225 2.6 8.7 0.00 0.00 0.00 49 1009.5
20260507172057 70 225 7.0 8.7 0.00 0.00 0.00 49 1009.6
20260507171557 71 202 4.3 7.0 0.00 0.00 0.00 49 1009.6
20260507171057 71 225 5.2 7.8 0.00 0.00 0.00 48 1009.5
20260507170557 71 247 7.8 7.8 0.00 0.00 0.00 48 1009.5
20260507170056 71 247 3.5 10.4 0.00 0.00 0.00 48 1009.5
20260507165556 72 225 8.7 12.2 0.00 0.00 0.00 47 1009.5
20260507165056 72 247 6.1 14.8 0.00 0.00 0.00 47 1009.5
20260507164555 73 292 5.2 13.0 0.00 0.00 0.00 47 1009.5
20260507164055 73 247 12.2 17.4 0.00 0.00 0.00 46 1009.5
20260507163555 74 202 11.3 16.5 0.00 0.00 0.00 46 1009.6
20260507163054 74 292 0.9 13.9 0.00 0.00 0.00 45 1009.6
20260507162554 74 225 8.7 17.4 0.00 0.00 0.00 45 1009.6
20260507162054 75 202 6.1 12.2 0.00 0.00 0.00 45 1009.6
20260507161554 74 247 7.0 13.0 0.00 0.00 0.00 44 1009.5
20260507161053 74 225 9.6 11.3 0.00 0.00 0.00 44 1009.6
20260507160553 74 225 6.1 13.9 0.00 0.00 0.00 44 1009.7
20260507160053 74 247 2.6 14.8 0.00 0.00 0.00 44 1009.6
20260507155552 75 225 12.2 15.6 0.00 0.00 0.00 44 1009.6
20260507155052 75 247 7.0 16.5 0.00 0.00 0.00 44 1009.6
20260507154552 75 180 11.3 16.5 0.00 0.00 0.00 43 1009.6
20260507154051 76 225 8.7 16.5 0.00 0.00 0.00 43 1009.6
20260507153551 76 225 7.8 16.5 0.00 0.00 0.00 42 1009.7
20260507153051 76 202 7.0 14.8 0.00 0.00 0.00 42 1009.7
20260507152551 77 247 10.4 16.5 0.00 0.00 0.00 41 1009.6
20260507152050 77 180 2.6 13.0 0.00 0.00 0.00 41 1009.6
20260507151550 78 225 7.8 17.4 0.00 0.00 0.00 41 1009.6
20260507151050 79 202 4.3 6.1 0.00 0.00 0.00 41 1009.6
20260507150549 80 45 0.0 1.7 0.00 0.00 0.00 41 1009.6
20260507150049 80 225 0.0 6.1 0.00 0.00 0.00 41 1009.6
20260507145549 80 180 2.6 8.7 0.00 0.00 0.00 41 1009.6
20260507145049 80 112 0.0 7.0 0.00 0.00 0.00 40 1009.6
20260507144548 80 157 2.6 11.3 0.00 0.00 0.00 39 1009.6
20260507144048 80 67 2.6 9.6 0.00 0.00 0.00 39 1009.6
20260507143548 79 157 0.9 6.1 0.00 0.00 0.00 39 1009.6
20260507143047 80 157 2.6 12.2 0.00 0.00 0.00 38 1009.6
20260507142547 80 225 6.1 16.5 0.00 0.00 0.00 38 1009.6
20260507142047 80 225 3.5 12.2 0.00 0.00 0.00 38 1009.5
20260507141547 79 202 1.7 14.8 0.00 0.00 0.00 38 1009.6
20260507141046 80 225 5.2 20.0 0.00 0.00 0.00 37 1009.6
20260507140546 80 247 6.1 18.2 0.00 0.00 0.00 37 1009.6
20260507140046 80 225 7.0 20.9 0.00 0.00 0.00 37 1009.6
20260507135545 80 202 13.0 20.9 0.00 0.00 0.00 37 1009.6
20260507135045 79 202 6.1 7.0 0.00 0.00 0.00 40 1009.6
20260507134545 79 157 0.0 5.2 0.00 0.00 0.00 40 1009.6
20260507134044 79 180 1.7 10.4 0.00 0.00 0.00 40 1009.6
20260507133544 79 157 3.5 6.1 0.00 0.00 0.00 40 1009.6
20260507133044 79 157 2.6 10.4 0.00 0.00 0.00 39 1009.5
20260507132543 80 67 2.6 9.6 0.00 0.00 0.00 39 1009.5
20260507132043 81 45 3.5 13.0 0.00 0.00 0.00 38 1009.5
20260507131543 81 157 2.6 12.2 0.00 0.00 0.00 37 1009.5
20260507131043 82 90 0.9 7.8 0.00 0.00 0.00 36 1009.5
20260507130542 82 157 2.6 5.2 0.00 0.00 0.00 36 1009.5
20260507130042 82 135 3.5 6.1 0.00 0.00 0.00 35 1009.5
20260507125542 82 157 1.7 11.3 0.00 0.00 0.00 35 1009.5
20260507125041 82 157 3.5 8.7 0.00 0.00 0.00 35 1009.5
20260507124541 82 135 0.0 14.8 0.00 0.00 0.00 35 1009.5
20260507124041 82 225 7.0 17.4 0.00 0.00 0.00 35 1009.4
20260507123541 83 202 2.6 12.2 0.00 0.00 0.00 35 1009.5
20260507123040 83 225 8.7 13.0 0.00 0.00 0.00 35 1009.5
20260507122540 83 202 0.0 14.8 0.00 0.00 0.00 34 1009.4
20260507122040 84 225 3.5 17.4 0.00 0.00 0.00 34 1009.5
20260507121539 84 202 8.7 20.0 0.00 0.00 0.00 33 1009.4
20260507121039 85 292 6.1 10.4 0.00 0.00 0.00 33 1009.5
20260507120539 85 247 0.0 9.6 0.00 0.00 0.00 33 1009.5
20260507120039 84 157 2.6 8.7 0.00 0.00 0.00 33 1009.4
20260507115538 83 180 0.0 7.8 0.00 0.00 0.00 33 1009.4
20260507115038 83 90 0.0 7.0 0.00 0.00 0.00 32 1009.4
20260507114538 84 45 0.0 8.7 0.00 0.00 0.00 30 1009.4
20260507114037 85 67 2.6 7.0 0.00 0.00 0.00 32 1009.4
20260507113537 84 135 7.0 17.4 0.00 0.00 0.00 33 1009.4
20260507113037 84 45 0.0 4.3 0.00 0.00 0.00 33 1009.4
20260507112537 85 67 1.7 5.2 0.00 0.00 0.00 33 1009.4
20260507112036 84 292 0.0 1.7 0.00 0.00 0.00 34 1009.4
20260507111536 83 292 0.0 5.2 0.00 0.00 0.00 35 1009.4
20260507111036 82 292 5.2 9.6 0.00 0.00 0.00 35 1009.3
20260507110535 81 315 0.0 2.6 0.00 0.00 0.00 35 1009.3
20260507110035 80 315 1.7 5.2 0.00 0.00 0.00 35 1009.3
20260507105535 80 337 5.2 5.2 0.00 0.00 0.00 34 1009.3
20260507105034 81 22 1.7 4.3 0.00 0.00 0.00 34 1009.3
20260507104534 81 67 0.0 5.2 0.00 0.00 0.00 33 1009.4
20260507104034 83 22 1.7 5.2 0.00 0.00 0.00 32 1009.4
20260507103534 83 337 0.0 2.6 0.00 0.00 0.00 35 1009.6
20260507103033 82 292 0.0 2.6 0.00 0.00 0.00 36 1009.7
20260507102533 81 292 0.0 3.5 0.00 0.00 0.00 36 1009.9
20260507102033 78 180 0.0 5.2 0.00 0.00 0.00 36 1010.1
20260507101532 78 0 1.7 5.2 0.00 0.00 0.00 35 1010.4
20260507101032 78 22 2.6 3.5 0.00 0.00 0.00 36 1010.4
20260507100532 78 90 2.6 7.0 0.00 0.00 0.00 35 1010.4
20260507100031 77 22 0.0 3.5 0.00 0.00 0.00 36 1010.5
20260507095531 78 22 3.5 6.1 0.00 0.00 0.00 35 1010.6
20260507095031 77 22 0.0 2.6 0.00 0.00 0.00 37 1010.5
20260507094531 77 22 1.7 3.5 0.00 0.00 0.00 36 1010.7
20260507094030 77 22 1.7 4.3 0.00 0.00 0.00 35 1010.7
20260507093530 77 0 0.0 3.5 0.00 0.00 0.00 37 1010.7
20260507093030 77 22 0.0 2.6 0.00 0.00 0.00 38 1010.8
20260507092529 76 67 2.6 4.3 0.00 0.00 0.00 39 1010.9
20260507092029 76 45 0.9 3.5 0.00 0.00 0.00 39 1011.1
20260507091529 76 45 2.6 2.6 0.00 0.00 0.00 39 1011.2
20260507091029 75 0 2.6 2.6 0.00 0.00 0.00 41 1011.1
20260507090528 75 22 0.0 3.5 0.00 0.00 0.00 43 1011.2
20260507090028 74 22 0.0 1.7 0.00 0.00 0.00 45 1011.1
20260507085528 73 22 1.7 2.6 0.00 0.00 0.00 46 1011.2
20260507085027 72 67 0.0 2.6 0.00 0.00 0.00 49 1011.2
20260507084529 72 45 0.9 5.2 0.00 0.00 0.00 50 1011.4
20260507084027 71 67 0.0 3.5 0.00 0.00 0.00 52 1011.4
20260507083527 71 67 1.7 5.2 0.00 0.00 0.00 52 1011.4
20260507083026 70 45 2.6 5.2 0.00 0.00 0.00 54 1011.3
20260507082526 69 90 0.9 5.2 0.00 0.00 0.00 54 1011.4
20260507082026 69 22 3.5 6.1 0.00 0.00 0.00 55 1011.5
20260507081525 68 67 1.7 5.2 0.00 0.00 0.00 55 1011.4
20260507081025 68 67 2.6 7.0 0.00 0.00 0.00 55 1011.5
20260507080525 68 45 3.5 7.0 0.00 0.00 0.00 55 1011.5
20260507080024 68 67 3.5 7.0 0.00 0.00 0.00 55 1011.5
20260507075524 68 67 4.3 7.8 0.00 0.00 0.00 54 1011.6
20260507075024 68 67 7.8 7.8 0.00 0.00 0.00 55 1011.6
20260507074524 68 67 7.0 7.8 0.00 0.00 0.00 55 1011.7
20260507074023 67 67 3.5 6.1 0.00 0.00 0.00 56 1011.7
20260507073523 67 45 5.2 7.0 0.00 0.00 0.00 57 1011.7
20260507073023 66 22 4.3 5.2 0.00 0.00 0.00 58 1011.8
20260507072522 66 22 3.5 6.1 0.00 0.00 0.00 59 1011.9
20260507072022 66 45 4.3 6.1 0.00 0.00 0.00 58 1011.8
20260507071522 66 22 5.2 5.2 0.00 0.00 0.00 57 1011.9
20260507071022 66 67 4.3 5.2 0.00 0.00 0.00 57 1011.9
20260507070521 66 45 3.5 5.2 0.00 0.00 0.00 57 1012.0
20260507070021 66 67 4.3 4.3 0.00 0.00 0.00 57 1012.0
20260507065521 66 67 2.6 4.3 0.00 0.00 0.00 56 1011.9
20260507065020 66 45 0.0 5.2 0.00 0.00 0.00 56 1011.9
20260507064520 66 45 1.7 5.2 0.00 0.00 0.00 58 1011.9
20260507064020 66 22 3.5 6.1 0.00 0.00 0.00 57 1011.9
20260507063520 66 67 5.2 5.2 0.00 0.00 0.00 58 1012.0
20260507063019 65 22 1.7 5.2 0.00 0.00 0.00 58 1011.9
20260507062519 66 67 1.7 5.2 0.00 0.00 0.00 58 1012.0
20260507062019 65 67 2.6 5.2 0.00 0.00 0.00 58 1012.0
20260507061518 65 45 3.5 5.2 0.00 0.00 0.00 57 1012.1
20260507061018 65 45 0.9 4.3 0.00 0.00 0.00 57 1012.1
20260507060518 65 45 3.5 4.3 0.00 0.00 0.00 57 1012.1
20260507060017 66 45 3.5 4.3 0.00 0.00 0.00 57 1012.2
20260507055517 66 22 3.5 3.5 0.00 0.00 0.00 58 1012.2
20260507055017 66 22 0.0 1.7 0.00 0.00 0.00 59 1012.2
20260507054517 65 45 0.0 1.7 0.00 0.00 0.00 61 1012.2
20260507054016 63 45 0.0 0.0 0.00 0.00 0.00 63 1012.2
20260507053516 62 45 0.0 3.5 0.00 0.00 0.00 63 1012.2
20260507053016 62 67 0.0 1.7 0.00 0.00 0.00 63 1012.2
20260507052515 60 67 1.7 4.3 0.00 0.00 0.00 64 1012.2
20260507052015 60 67 1.7 3.5 0.00 0.00 0.00 65 1012.1
20260507051515 59 22 1.7 3.5 0.00 0.00 0.00 66 1012.1
20260507051015 58 67 1.7 3.5 0.00 0.00 0.00 67 1012.2
20260507050514 58 67 1.7 3.5 0.00 0.00 0.00 68 1012.2
20260507050014 57 67 1.7 1.7 0.00 0.00 0.00 69 1012.3
20260507045514 56 67 0.0 2.6 0.00 0.00 0.00 70 1012.3
20260507045013 55 67 2.6 2.6 0.00 0.00 0.00 70 1012.3
20260507044513 55 67 2.6 5.2 0.00 0.00 0.00 70 1012.2
20260507044013 55 45 3.5 6.1 0.00 0.00 0.00 70 1012.2
20260507043512 55 67 1.7 4.3 0.00 0.00 0.00 71 1012.3
20260507043012 54 45 3.5 3.5 0.00 0.00 0.00 71 1012.2
20260507042512 54 45 0.9 4.3 0.00 0.00 0.00 70 1012.2
20260507042012 55 157 0.9 1.7 0.00 0.00 0.00 69 1012.3
20260507041511 55 180 0.0 0.0 0.00 0.00 0.00 68 1012.2
20260507041011 55 180 0.0 0.0 0.00 0.00 0.00 68 1012.2
20260507040511 55 180 0.0 0.0 0.00 0.00 0.00 68 1012.2
20260507040011 55 180 0.0 0.9 0.00 0.00 0.00 68 1012.2
20260507035510 55 180 0.0 0.0 0.00 0.00 0.00 69 1012.1
20260507035010 55 180 0.0 0.0 0.00 0.00 0.00 69 1012.0
20260507034510 55 180 0.0 0.0 0.00 0.00 0.00 70 1012.0
20260507034009 55 180 0.0 0.0 0.00 0.00 0.00 71 1012.0
20260507033509 54 180 0.0 0.0 0.00 0.00 0.00 72 1011.9
20260507033009 52 180 0.0 0.0 0.00 0.00 0.00 73 1011.9
20260507032508 51 180 0.0 0.0 0.00 0.00 0.00 73 1011.7
20260507032008 51 180 0.0 0.0 0.00 0.00 0.00 73 1011.7
20260507031508 50 180 0.0 0.0 0.00 0.00 0.00 73 1011.6
20260507031008 50 180 0.0 0.9 0.00 0.00 0.00 73 1011.6
20260507030507 50 180 0.0 0.0 0.00 0.00 0.00 73 1011.7
20260507030007 50 180 0.0 0.0 0.00 0.00 0.00 73 1011.7
20260507025507 50 180 0.0 0.0 0.00 0.00 0.00 73 1011.6
20260507025006 50 180 0.0 0.0 0.00 0.00 0.00 73 1011.5
20260507024506 51 180 0.0 0.0 0.00 0.00 0.00 73 1011.6
20260507024006 51 180 0.0 0.0 0.00 0.00 0.00 73 1011.5
20260507023505 51 180 0.0 0.0 0.00 0.00 0.00 73 1011.5
20260507023005 51 180 0.0 0.0 0.00 0.00 0.00 73 1011.5
20260507022505 51 180 0.0 0.0 0.00 0.00 0.00 72 1011.5
20260507022005 51 180 0.0 0.0 0.00 0.00 0.00 72 1011.5
20260507021504 51 180 0.0 0.0 0.00 0.00 0.00 72 1011.4
20260507021004 51 180 0.0 0.0 0.00 0.00 0.00 72 1011.5
20260507020504 51 180 0.0 0.0 0.00 0.00 0.00 72 1011.4
20260507020003 51 180 0.0 0.9 0.00 0.00 0.00 72 1011.4
20260507015503 52 180 0.0 0.0 0.00 0.00 0.00 72 1011.4
20260507015003 52 180 0.0 0.0 0.00 0.00 0.00 71 1011.3
20260507014503 52 180 0.0 0.0 0.00 0.00 0.00 71 1011.3
20260507014002 52 180 0.0 0.0 0.00 0.00 0.00 72 1011.4
20260507013502 53 180 0.0 0.9 0.00 0.00 0.00 72 1011.3
20260507013002 53 180 0.0 0.9 0.00 0.00 0.00 72 1011.3
20260507012501 53 180 0.0 0.0 0.00 0.00 0.00 72 1011.4
20260507012001 53 180 0.0 0.0 0.00 0.00 0.00 72 1011.4
20260507011501 53 180 0.0 2.6 0.00 0.00 0.00 73 1011.3
20260507011000 53 202 1.7 1.7 0.00 0.00 0.00 72 1011.3
20260507010500 52 225 0.0 0.9 0.00 0.00 0.00 72 1011.2
20260507010000 53 225 0.0 1.7 0.00 0.00 0.00 72 1011.3
20260507005500 53 225 0.0 0.0 0.00 0.00 0.00 71 1011.3
20260507004959 53 225 0.0 1.7 0.00 0.00 0.00 71 1011.2
20260507004459 53 225 0.0 0.0 0.00 0.00 0.00 71 1011.2
20260507003959 53 225 0.0 0.0 0.00 0.00 0.00 71 1011.2
20260507003458 53 225 0.0 0.0 0.00 0.00 0.00 71 1011.2
20260507002958 54 225 0.0 0.0 0.00 0.00 0.00 71 1011.0
20260507002458 54 225 0.0 0.0 0.00 0.00 0.00 71 1011.1
20260507001958 54 225 0.0 0.0 0.00 0.00 0.00 70 1011.1
20260507001457 54 225 0.0 1.7 0.00 0.00 0.00 70 1011.0
20260507000957 54 225 0.0 0.0 0.00 0.00 0.00 70 1011.0
20260507000457 54 225 0.0 0.0 0.00 0.00 0.00 71 1011.0
20260506235956 54 225 0.0 0.9 0.00 0.00 0.00 71 1011.0
20260506235456 54 225 0.0 0.0 0.00 0.00 0.00 71 1010.9
20260506234956 54 225 0.0 0.9 0.00 0.00 0.00 71 1010.9
20260506234455 54 225 0.0 0.0 0.00 0.00 0.00 70 1011.0
20260506233955 54 225 0.0 0.0 0.00 0.00 0.00 70 1010.9
20260506233455 54 225 0.0 1.7 0.00 0.00 0.00 70 1011.0
20260506232955 55 225 0.0 1.7 0.00 0.00 0.00 69 1010.9
20260506232454 55 225 0.0 0.0 0.00 0.00 0.00 68 1011.0
20260506231954 55 225 0.0 0.0 0.00 0.00 0.00 68 1010.9
20260506231454 55 225 0.0 0.0 0.00 0.00 0.00 68 1010.9
20260506230953 55 225 0.0 0.9 0.00 0.00 0.00 67 1010.9
20260506230453 55 225 0.0 0.0 0.00 0.00 0.00 66 1010.8
20260506225953 55 225 0.0 0.0 0.00 0.00 0.00 66 1010.8
20260506225453 55 225 0.0 2.6 0.00 0.00 0.00 66 1010.9
20260506224952 56 225 0.9 1.7 0.00 0.00 0.00 65 1010.7
20260506224452 56 225 1.7 3.5 0.00 0.00 0.00 66 1010.8
20260506223952 56 225 0.9 2.6 0.00 0.00 0.00 66 1010.7
20260506223451 57 225 2.6 5.2 0.00 0.00 0.00 64 1010.7
20260506222951 57 202 0.0 2.6 0.00 0.00 0.00 63 1010.7
20260506222451 57 202 0.0 4.3 0.00 0.00 0.00 63 1010.7
20260506221951 57 202 0.9 1.7 0.00 0.00 0.00 62 1010.6
20260506221450 58 180 1.7 1.7 0.00 0.00 0.00 63 1010.7
20260506220950 58 180 0.0 3.5 0.00 0.00 0.00 63 1010.5
20260506220450 58 180 1.7 2.6 0.00 0.00 0.00 63 1010.5
20260506215949 58 180 2.6 3.5 0.00 0.00 0.00 63 1010.5
20260506215449 58 180 2.6 5.2 0.00 0.00 0.00 63 1010.4
20260506214949 59 90 0.9 3.5 0.00 0.00 0.00 62 1010.4
20260506214448 59 90 0.0 2.6 0.00 0.00 0.00 61 1010.3
20260506213948 59 90 2.6 2.6 0.00 0.00 0.00 61 1010.4
20260506213448 60 90 0.9 1.7 0.00 0.00 0.00 60 1010.4
20260506212948 60 67 0.0 0.9 0.00 0.00 0.00 60 1010.3
20260506212447 60 67 0.0 0.9 0.00 0.00 0.00 59 1010.3
20260506211947 60 67 0.0 2.6 0.00 0.00 0.00 59 1010.2
20260506211447 61 67 2.6 2.6 0.00 0.00 0.00 59 1010.2
20260506210946 61 67 0.9 0.9 0.00 0.00 0.00 59 1010.1
20260506210446 61 67 0.0 3.5 0.00 0.00 0.00 58 1010.0
20260506205946 62 67 2.6 2.6 0.00 0.00 0.00 57 1010.1
20260506205446 62 67 0.0 0.0 0.00 0.00 0.00 56 1010.0
20260506204945 63 67 0.0 1.7 0.00 0.00 0.00 56 1010.0
20260506204445 63 67 0.0 0.0 0.00 0.00 0.00 55 1010.0
20260506203945 63 67 0.0 1.7 0.00 0.00 0.00 56 1009.9
20260506203444 63 67 0.9 2.6 0.00 0.00 0.00 56 1009.9
20260506202944 63 67 1.7 2.6 0.00 0.00 0.00 56 1009.7
20260506202444 63 67 1.7 3.5 0.00 0.00 0.00 56 1009.6
20260506201944 63 45 3.5 3.5 0.00 0.00 0.00 56 1009.5
20260506201443 63 45 1.7 3.5 0.00 0.00 0.00 56 1009.5